Regional Weather Roundup
Issued by NWS Little Rock, AR

Current Version | Previous Version | Text Only | Print | Product List | Glossary On
Versions: 1 2 3 4 5 6 7 8 9 10 11 12 13 14 15 16 17 18 19 20 21 22 23 24 25 26 27 28 29 30 31 32 33 34 35 36 37 38 39 40 41 42 43 44 45 46 47 48 49 50
000
ASUS44 KLZK 201505
RWRLZK

WEATHER ROUNDUP FOR ARKANSAS
NATIONAL WEATHER SERVICE LITTLE ROCK AR
1000 AM CDT SAT OCT 20 2018

NOTE: "FAIR" INDICATES FEW OR NO CLOUDS BELOW 12,000 FEET WITH NO
SIGNIFICANT WEATHER AND/OR OBSTRUCTIONS TO VISIBILITY.

ARZ001-003-010-029-201600-
NORTHWEST ARKANSAS

CITY           SKY/WX    TMP DP  RH WIND       PRES   REMARKS
FAYETTEVILLE   SUNNY     52  47  83 VRB3      30.29R
FORT SMITH     SUNNY     60  54  80 W6        30.27R
HARRISON       SUNNY     56  46  69 NW9       30.27R
ROGERS         SUNNY     52  49  89 VRB3      30.30R
SILOAM SPGS    SUNNY     54  51  90 N6        30.30R
HIGHFILL       SUNNY     57  47  69 N8        30.30R
SPRINGDALE     SUNNY     52  50  93 N6G12     30.30R
$$

ARZ004-005-016-201600-
NORTH CENTRAL ARKANSAS

CITY           SKY/WX    TMP DP  RH WIND       PRES   REMARKS
BATESVILLE     MOSUNNY   59  54  83 NW6       30.22R
FLIPPIN        CLOUDY    58  47  66 NW5       30.25R
MTN HOME       SUNNY     56  50  80 N3        30.23R
$$

ARZ040-041-201600-
WEST CENTRAL ARKANSAS

CITY           SKY/WX    TMP DP  RH WIND       PRES   REMARKS
MENA           CLOUDY    57  55  94 CALM      30.26R
$$

ARZ009-017-025-026-028-201600-
NORTHEAST ARKANSAS

CITY           SKY/WX    TMP DP  RH WIND       PRES   REMARKS
CORNING        FAIR      57  57 100 NW9       30.19R
JONESBORO      FAIR      59  57  93 NW7       30.19R
NEWPORT        FAIR      58  55  90 NW13      30.20R
WALNUT RIDGE   FAIR      59  54  83 NW14      30.20R
BLYTHEVILLE    PTSUNNY   58  54  86 NW6       30.18R
$$

ARZ022-023-033-042-044-201600-
CENTRAL ARKANSAS

CITY           SKY/WX    TMP DP  RH WIND       PRES   REMARKS
LITTLE ROCK    PTSUNNY   58  56  93 N9        30.22R
N LITTLE ROCK    N/A     55  54  97 NW6       30.25R
JACKSONVILLE   PTSUNNY   57  55  94 NW5       30.21R
CONWAY         PTSUNNY   57  54  88 NW8       30.23R
SEARCY         FAIR      60  57  89 N6        30.21R
HOT SPRINGS    MOSUNNY   62  55  77 N6        30.23R
RUSSELLVILLE   MOSUNNY   57  54  89 NW8       30.24R
CLINTON        FAIR      61  52  72 VRB6      30.24R
$$

ARZ036-201600-
EAST ARKANSAS

CITY           SKY/WX    TMP DP  RH WIND       PRES   REMARKS
$$

ARZ050-053-066-070-073-201600-
SOUTHWEST ARKANSAS

CITY           SKY/WX    TMP DP  RH WIND       PRES   REMARKS
ARKADELPHIA    PTSUNNY   60  56  86 N8        30.23R
CAMDEN           N/A     59  55  88 N9        30.21R
TEXARKANA      PTSUNNY   60  57  89 NE8       30.21R
EL DORADO      CLOUDY    60  59  96 N6        30.21R
DE QUEEN       SUNNY     64  59  83 NE6       30.21R
$$

ARZ056-057-069-201600-
SOUTHEAST ARKANSAS

CITY           SKY/WX    TMP DP  RH WIND       PRES   REMARKS
PINE BLUFF     PTSUNNY   59  54  83 N9        30.22R
STUTTGART      CLOUDY    60  56  86 N9        30.21R
MONTICELLO     CLOUDY    59  56  89 VRB6      30.20R

$$






USA.gov is the U.S. government's official web portal to all federal, state and local government web resources and services.